Location: ??????
(38.0677°N, 22.9870°E)
Time: 13:48:47
(UTC+00:00)

Cosmos 2074 Rocket - Pass Details

Date: 23 May 2024
Orbit: 966 x 986 km, 82.9° (Epoch: 12 June)

Event Time Altitude Azimuth Distance (km) Brightness Sun altitude
Exits shadow 01:04:02 20° 170° (S) 2,077 5.4 -20.4°
Maximum altitude 01:08:24 65° 93° (E) 1,062 4.3 -19.9°
Drops below altitude 10° 01:14:33 10° 13° (NNE) 2,717 7.2 -19.1°
Sets 01:17:04 0° 11° (N) 3,666 8.0 -18.7°
